Hourly Weather Holm

Today, 11 April, Sunday

Time Temperature Precipitation Wind Pressure Humidity
00:00 +3°C° 0 mm 2 mps 749 mmHg 69%
01:00 +2°C° 0 mm 2 mps 749 mmHg 71%
02:00 +2°C° 0 mm 2 mps 749 mmHg 72%
03:00 +2°C° 0 mm 2 mps 749 mmHg 73%
04:00 +1°C° 0 mm 2 mps 750 mmHg 75%
05:00 +1°C° 0 mm 2 mps 750 mmHg 76%
06:00 +3°C° 0 mm 2 mps 750 mmHg 70%
07:00 +5°C° 0 mm 2 mps 751 mmHg 64%
08:00 +7°C° 0 mm 2 mps 751 mmHg 58%
09:00 +10°C° 0 mm 1 mps 751 mmHg 53%
10:00 +11°C° 0 mm 1 mps 751 mmHg 48%
11:00 +13°C° 0 mm 1 mps 751 mmHg 43%
12:00 +13°C° 0 mm 1 mps 751 mmHg 42%
13:00 +14°C° 0 mm 1 mps 751 mmHg 40%
14:00 +14°C° 0 mm 0 mps 751 mmHg 39%
15:00 +14°C° 0 mm 1 mps 751 mmHg 42%
16:00 +14°C° 0 mm 1 mps 751 mmHg 46%
17:00 +14°C° 0 mm 1 mps 751 mmHg 49%
18:00 +12°C° 0 mm 2 mps 752 mmHg 53%
19:00 +9°C° 0 mm 2 mps 752 mmHg 57%
20:00 +8°C° 0 mm 2 mps 752 mmHg 61%
21:00 +7°C° 0 mm 2 mps 752 mmHg 63%
22:00 +7°C° 0 mm 2 mps 752 mmHg 66%
23:00 +6°C° 0 mm 2 mps 752 mmHg 68%

Tomorrow, 12 April, Monday

Time Temperature Precipitation Wind Pressure Humidity
00:00 +6°C° 0 mm 2 mps 752 mmHg 70%
01:00 +5°C° 0 mm 2 mps 752 mmHg 71%
02:00 +5°C° 0 mm 2 mps 752 mmHg 73%
03:00 +3°C° 0 mm 3 mps 752 mmHg 74%
04:00 +3°C° 0 mm 3 mps 752 mmHg 75%
05:00 +3°C° 0 mm 3 mps 752 mmHg 76%
06:00 +4°C° 0 mm 4 mps 752 mmHg 69%
07:00 +5°C° 0 mm 4 mps 752 mmHg 62%
08:00 +6°C° 0 mm 5 mps 751 mmHg 54%
09:00 +7°C° 0 mm 5 mps 751 mmHg 58%
10:00 +8°C° 0 mm 5 mps 751 mmHg 62%
11:00 +9°C° 0 mm 5 mps 751 mmHg 66%
12:00 +10°C° 0 mm 5 mps 750 mmHg 66%
13:00 +12°C° 0 mm 4 mps 750 mmHg 66%
14:00 +13°C° 0 mm 4 mps 749 mmHg 66%
15:00 +13°C° 0 mm 4 mps 749 mmHg 68%
16:00 +13°C° 0 mm 4 mps 749 mmHg 71%
17:00 +13°C° 0 mm 3 mps 749 mmHg 73%
18:00 +12°C° 0 mm 3 mps 749 mmHg 78%
19:00 +11°C° 0 mm 3 mps 748 mmHg 84%
20:00 +10°C° 0 mm 3 mps 748 mmHg 90%
21:00 +9°C° 0 mm 3 mps 748 mmHg 89%
22:00 +9°C° 0 mm 3 mps 748 mmHg 89%
23:00 +9°C° 0 mm 3 mps 747 mmHg 88%

Day after tomorrow, 13 April, Tuesday

Time Temperature Precipitation Wind Pressure Humidity
00:00 +8°C° 0 mm 3 mps 747 mmHg 87%
01:00 +8°C° 0 mm 3 mps 747 mmHg 86%
02:00 +8°C° 0 mm 3 mps 747 mmHg 84%
03:00 +8°C° 0 mm 3 mps 747 mmHg 85%
04:00 +8°C° 0 mm 3 mps 747 mmHg 85%
05:00 +7°C° 0 mm 3 mps 747 mmHg 86%
06:00 +9°C° 0 mm 3 mps 747 mmHg 80%
07:00 +11°C° 0 mm 3 mps 747 mmHg 74%
08:00 +12°C° 0 mm 4 mps 747 mmHg 68%
09:00 +14°C° 0 mm 4 mps 747 mmHg 61%
10:00 +17°C° 0 mm 4 mps 747 mmHg 54%
11:00 +19°C° 0 mm 5 mps 747 mmHg 46%
12:00 +19°C° 0 mm 5 mps 747 mmHg 46%
13:00 +19°C° 0 mm 4 mps 747 mmHg 45%
14:00 +20°C° 0 mm 4 mps 747 mmHg 44%
15:00 +19°C° 0 mm 4 mps 747 mmHg 46%
16:00 +19°C° 0 mm 3 mps 746 mmHg 49%
17:00 +18°C° 0 mm 3 mps 746 mmHg 51%
18:00 +17°C° 0 mm 3 mps 746 mmHg 55%
19:00 +14°C° 0 mm 3 mps 746 mmHg 60%
20:00 +12°C° 0 mm 3 mps 746 mmHg 64%
21:00 +11°C° 0 mm 3 mps 746 mmHg 65%
22:00 +11°C° 0 mm 3 mps 746 mmHg 66%
23:00 +10°C° 0 mm 3 mps 745 mmHg 67%

14 April, Wednesday

Time Temperature Precipitation Wind Pressure Humidity
00:00 +10°C° 0 mm 3 mps 745 mmHg 70%
01:00 +10°C° 0 mm 3 mps 745 mmHg 72%
02:00 +9°C° 0 mm 2 mps 745 mmHg 74%
03:00 +9°C° 0 mm 2 mps 745 mmHg 76%
04:00 +9°C° 0 mm 2 mps 745 mmHg 78%
05:00 +8°C° 0 mm 2 mps 745 mmHg 80%
06:00 +10°C° 0 mm 3 mps 745 mmHg 75%
07:00 +11°C° 0 mm 3 mps 745 mmHg 70%
08:00 +13°C° 0 mm 3 mps 745 mmHg 66%
09:00 +14°C° 0 mm 3 mps 745 mmHg 59%
10:00 +17°C° 0 mm 4 mps 744 mmHg 53%
11:00 +18°C° 0 mm 4 mps 744 mmHg 46%
12:00 +19°C° 0 mm 4 mps 744 mmHg 41%
13:00 +19°C° 0 mm 5 mps 743 mmHg 36%
14:00 +20°C° 0 mm 5 mps 743 mmHg 31%
15:00 +19°C° 0 mm 4 mps 743 mmHg 36%
16:00 +18°C° 0 mm 4 mps 743 mmHg 41%
17:00 +17°C° 0 mm 3 mps 742 mmHg 46%
18:00 +16°C° 0 mm 3 mps 742 mmHg 51%
19:00 +14°C° 0 mm 2 mps 742 mmHg 56%
20:00 +13°C° 0 mm 2 mps 742 mmHg 61%
21:00 +12°C° 0 mm 2 mps 742 mmHg 67%
22:00 +12°C° 0 mm 2 mps 742 mmHg 73%
23:00 +10°C° 0 mm 2 mps 742 mmHg 79%

15 April, Thursday

Time Temperature Precipitation Wind Pressure Humidity
00:00 +10°C° 0 mm 2 mps 742 mmHg 80%
01:00 +11°C° 0 mm 1 mps 742 mmHg 81%
02:00 +11°C° 0 mm 1 mps 742 mmHg 82%
03:00 +10°C° 0 mm 1 mps 742 mmHg 82%
04:00 +10°C° 0 mm 1 mps 742 mmHg 83%
05:00 +10°C° 0 mm 1 mps 742 mmHg 83%
06:00 +11°C° 0 mm 1 mps 742 mmHg 78%
07:00 +12°C° 0 mm 1 mps 742 mmHg 72%
08:00 +13°C° 0 mm 1 mps 742 mmHg 67%
09:00 +14°C° 0 mm 1 mps 742 mmHg 63%
10:00 +15°C° 0 mm 1 mps 742 mmHg 60%
11:00 +15°C° 0 mm 1 mps 742 mmHg 57%
12:00 +16°C° 0 mm 1 mps 742 mmHg 53%
13:00 +18°C° 0 mm 1 mps 742 mmHg 49%
14:00 +18°C° 0 mm 2 mps 741 mmHg 45%
15:00 +18°C° 0 mm 1 mps 741 mmHg 48%
16:00 +18°C° 0 mm 1 mps 741 mmHg 52%
17:00 +18°C° 0 mm 1 mps 741 mmHg 55%
18:00 +15°C° 0 mm 1 mps 741 mmHg 59%
19:00 +14°C° 0 mm 2 mps 741 mmHg 63%
20:00 +13°C° 0 mm 2 mps 741 mmHg 67%
21:00 +12°C° 0 mm 3 mps 741 mmHg 69%
22:00 +11°C° 0 mm 3 mps 741 mmHg 70%
23:00 +11°C° 0 mm 3 mps 741 mmHg 72%

16 April, Friday

Time Temperature Precipitation Wind Pressure Humidity
00:00 +10°C° 0 mm 4 mps 741 mmHg 76%
01:00 +9°C° 0 mm 5 mps 741 mmHg 79%
02:00 +8°C° 0 mm 5 mps 741 mmHg 83%
03:00 +8°C° 0 mm 6 mps 741 mmHg 84%
04:00 +8°C° 0 mm 6 mps 742 mmHg 85%
05:00 +6°C° 0 mm 7 mps 742 mmHg 86%
06:00 +6°C° 0 mm 7 mps 742 mmHg 84%
07:00 +6°C° 0 mm 7 mps 743 mmHg 82%
08:00 +6°C° 0 mm 8 mps 743 mmHg 80%
09:00 +6°C° 0 mm 8 mps 744 mmHg 80%
10:00 +6°C° 0 mm 8 mps 744 mmHg 80%
11:00 +6°C° 0 mm 8 mps 744 mmHg 80%
12:00 +6°C° 0.3 mm 8 mps 745 mmHg 79%
13:00 +6°C° 0.3 mm 8 mps 745 mmHg 79%
14:00 +5°C° 0.3 mm 8 mps 745 mmHg 79%
15:00 +6°C° 0.4 mm 8 mps 746 mmHg 73%
16:00 +6°C° 0.4 mm 8 mps 746 mmHg 67%
17:00 +6°C° 0.4 mm 8 mps 746 mmHg 61%
18:00 +6°C° 0 mm 7 mps 747 mmHg 58%
19:00 +5°C° 0 mm 7 mps 747 mmHg 56%
20:00 +5°C° 0 mm 7 mps 747 mmHg 54%
21:00 +4°C° 0 mm 7 mps 748 mmHg 56%
22:00 +3°C° 0 mm 6 mps 748 mmHg 58%
23:00 +2°C° 0 mm 6 mps 749 mmHg 60%
Show more